When you browse on this site, cookies collect data to enhance your experience and personalize the content and advertising you see.
Visit our Privacy Policy to learn more. By continuing to use the site, you agree to this use of cookies and data.
  • In Deutschland
  • Länderverzeichnis
  • Für 7 Tage
  • Wassertemperatur
  • Wetterkarte
  • Widgets
  • user-avatar
    Anmelden

    Stündliche Wetter Durres

    Heute, 20 November, Mittwoch

    Zeit Temperatur Niederschläge Wind Luftdruck Luftfeuchtigkeit
    00:00 +14°C° 2.3 mm 6 m/S 759 mmHg 88%
    01:00 +14°C° 0 mm 6 m/S 758 mmHg 91%
    02:00 +13°C° 6.7 mm 8 m/S 757 mmHg 90%
    03:00 +12°C° 6.7 mm 9 m/S 757 mmHg 88%
    04:00 +12°C° 6.7 mm 11 m/S 757 mmHg 87%
    05:00 +12°C° 0.4 mm 10 m/S 757 mmHg 85%
    06:00 +12°C° 0.4 mm 9 m/S 758 mmHg 84%
    07:00 +12°C° 0.4 mm 8 m/S 758 mmHg 83%
    08:00 +13°C° 0.3 mm 8 m/S 758 mmHg 77%
    09:00 +15°C° 0.3 mm 8 m/S 759 mmHg 71%
    10:00 +16°C° 0.3 mm 8 m/S 759 mmHg 65%
    11:00 +17°C° 0.3 mm 8 m/S 759 mmHg 63%
    12:00 +18°C° 0.3 mm 8 m/S 759 mmHg 62%
    13:00 +18°C° 0.3 mm 7 m/S 759 mmHg 60%
    14:00 +17°C° 0.2 mm 7 m/S 759 mmHg 65%
    15:00 +16°C° 0.2 mm 7 m/S 760 mmHg 70%
    16:00 +15°C° 0.2 mm 6 m/S 760 mmHg 75%
    17:00 +15°C° 0.1 mm 6 m/S 760 mmHg 77%
    18:00 +14°C° 0.1 mm 6 m/S 760 mmHg 78%
    19:00 +14°C° 0.1 mm 6 m/S 760 mmHg 80%
    20:00 +14°C° 0.1 mm 6 m/S 760 mmHg 80%
    21:00 +13°C° 0.1 mm 5 m/S 761 mmHg 80%
    22:00 +13°C° 0.1 mm 5 m/S 761 mmHg 80%
    23:00 +13°C° 0.2 mm 5 m/S 761 mmHg 80%

    Morgen, 21 November, Donnerstag

    Zeit Temperatur Niederschläge Wind Luftdruck Luftfeuchtigkeit
    00:00 +13°C° 0.2 mm 4 m/S 760 mmHg 80%
    01:00 +12°C° 0.2 mm 4 m/S 760 mmHg 79%
    02:00 +12°C° 0.2 mm 4 m/S 760 mmHg 78%
    03:00 +12°C° 0.2 mm 4 m/S 760 mmHg 76%
    04:00 +12°C° 0.2 mm 4 m/S 760 mmHg 74%
    05:00 +12°C° 0 mm 4 m/S 760 mmHg 73%
    06:00 +11°C° 0 mm 4 m/S 760 mmHg 71%
    07:00 +11°C° 0 mm 4 m/S 760 mmHg 70%
    08:00 +13°C° 0 mm 4 m/S 760 mmHg 66%
    09:00 +14°C° 0 mm 4 m/S 760 mmHg 62%
    10:00 +17°C° 0 mm 4 m/S 760 mmHg 57%
    11:00 +17°C° 0 mm 3 m/S 759 mmHg 56%
    12:00 +18°C° 0 mm 3 m/S 759 mmHg 54%
    13:00 +18°C° 0 mm 3 m/S 759 mmHg 52%
    14:00 +17°C° 0 mm 2 m/S 759 mmHg 57%
    15:00 +16°C° 0 mm 2 m/S 759 mmHg 63%
    16:00 +16°C° 0 mm 2 m/S 759 mmHg 68%
    17:00 +15°C° 0.1 mm 1 m/S 759 mmHg 70%
    18:00 +15°C° 0.1 mm 1 m/S 759 mmHg 71%
    19:00 +14°C° 0.1 mm 1 m/S 759 mmHg 73%
    20:00 +14°C° 0 mm 1 m/S 759 mmHg 74%
    21:00 +14°C° 0 mm 1 m/S 759 mmHg 74%
    22:00 +13°C° 0 mm 1 m/S 759 mmHg 74%
    23:00 +13°C° 0 mm 1 m/S 759 mmHg 74%

    übermorgen, 22 November, Freitag

    Zeit Temperatur Niederschläge Wind Luftdruck Luftfeuchtigkeit
    00:00 +13°C° 0 mm 1 m/S 759 mmHg 75%
    01:00 +13°C° 0 mm 1 m/S 759 mmHg 75%
    02:00 +13°C° 0 mm 1 m/S 759 mmHg 75%
    03:00 +13°C° 0 mm 1 m/S 759 mmHg 74%
    04:00 +12°C° 0 mm 1 m/S 759 mmHg 74%
    05:00 +12°C° 0 mm 1 m/S 759 mmHg 73%
    06:00 +12°C° 0 mm 1 m/S 759 mmHg 73%
    07:00 +12°C° 0 mm 1 m/S 759 mmHg 72%
    08:00 +14°C° 0 mm 1 m/S 760 mmHg 68%
    09:00 +15°C° 0 mm 1 m/S 760 mmHg 64%
    10:00 +16°C° 0 mm 1 m/S 760 mmHg 59%
    11:00 +18°C° 0 mm 1 m/S 760 mmHg 58%
    12:00 +18°C° 0 mm 1 m/S 760 mmHg 57%
    13:00 +19°C° 0 mm 1 m/S 759 mmHg 55%
    14:00 +18°C° 0 mm 1 m/S 759 mmHg 61%
    15:00 +16°C° 0 mm 1 m/S 759 mmHg 67%
    16:00 +14°C° 0 mm 0 m/S 759 mmHg 72%
    17:00 +15°C° 0 mm 1 m/S 760 mmHg 75%
    18:00 +14°C° 0 mm 1 m/S 760 mmHg 77%
    19:00 +14°C° 0 mm 1 m/S 760 mmHg 80%
    20:00 +13°C° 0 mm 1 m/S 760 mmHg 79%
    21:00 +13°C° 0 mm 2 m/S 760 mmHg 79%
    22:00 +13°C° 0 mm 2 m/S 761 mmHg 78%
    23:00 +13°C° 0 mm 2 m/S 761 mmHg 77%

    23 November, Samstag

    Zeit Temperatur Niederschläge Wind Luftdruck Luftfeuchtigkeit
    00:00 +12°C° 0 mm 3 m/S 761 mmHg 77%
    01:00 +12°C° 0 mm 3 m/S 761 mmHg 76%
    02:00 +12°C° 0 mm 3 m/S 761 mmHg 76%
    03:00 +12°C° 0 mm 3 m/S 760 mmHg 75%
    04:00 +12°C° 0 mm 3 m/S 760 mmHg 75%
    05:00 +12°C° 0 mm 3 m/S 760 mmHg 75%
    06:00 +12°C° 0 mm 3 m/S 760 mmHg 75%
    07:00 +12°C° 0 mm 3 m/S 760 mmHg 75%
    08:00 +13°C° 0 mm 3 m/S 760 mmHg 71%
    09:00 +14°C° 0 mm 3 m/S 760 mmHg 67%
    10:00 +17°C° 0 mm 3 m/S 760 mmHg 63%
    11:00 +17°C° 0 mm 3 m/S 760 mmHg 61%
    12:00 +18°C° 0 mm 3 m/S 760 mmHg 58%
    13:00 +18°C° 0 mm 3 m/S 759 mmHg 56%
    14:00 +18°C° 0 mm 3 m/S 759 mmHg 60%
    15:00 +17°C° 0 mm 3 m/S 759 mmHg 64%
    16:00 +16°C° 0 mm 3 m/S 759 mmHg 69%
    17:00 +16°C° 0 mm 3 m/S 759 mmHg 69%
    18:00 +14°C° 0 mm 3 m/S 759 mmHg 69%
    19:00 +14°C° 0 mm 3 m/S 759 mmHg 70%
    20:00 +13°C° 0 mm 4 m/S 760 mmHg 69%
    21:00 +13°C° 0 mm 4 m/S 760 mmHg 69%
    22:00 +13°C° 0 mm 5 m/S 760 mmHg 68%
    23:00 +13°C° 0 mm 5 m/S 760 mmHg 68%

    24 November, Sonntag

    Zeit Temperatur Niederschläge Wind Luftdruck Luftfeuchtigkeit
    00:00 +13°C° 0 mm 5 m/S 760 mmHg 68%
    01:00 +13°C° 0 mm 5 m/S 760 mmHg 68%
    02:00 +12°C° 0 mm 5 m/S 760 mmHg 69%
    03:00 +12°C° 0 mm 4 m/S 759 mmHg 70%
    04:00 +12°C° 0 mm 4 m/S 759 mmHg 71%
    05:00 +12°C° 0 mm 4 m/S 759 mmHg 71%
    06:00 +12°C° 0 mm 4 m/S 759 mmHg 72%
    07:00 +12°C° 0 mm 4 m/S 759 mmHg 72%
    08:00 +14°C° 0 mm 4 m/S 759 mmHg 68%
    09:00 +15°C° 0 mm 4 m/S 759 mmHg 64%
    10:00 +18°C° 0 mm 4 m/S 759 mmHg 60%
    11:00 +19°C° 0 mm 4 m/S 759 mmHg 57%
    12:00 +20°C° 0 mm 3 m/S 758 mmHg 54%
    13:00 +20°C° 0 mm 3 m/S 758 mmHg 50%
    14:00 +19°C° 0 mm 3 m/S 757 mmHg 55%
    15:00 +18°C° 0 mm 3 m/S 757 mmHg 59%
    16:00 +18°C° 0 mm 3 m/S 757 mmHg 63%
    17:00 +17°C° 0 mm 4 m/S 756 mmHg 64%
    18:00 +17°C° 0 mm 4 m/S 756 mmHg 64%
    19:00 +15°C° 0 mm 4 m/S 756 mmHg 64%
    20:00 +15°C° 0 mm 5 m/S 756 mmHg 64%
    21:00 +15°C° 0 mm 5 m/S 756 mmHg 64%
    22:00 +15°C° 0 mm 6 m/S 756 mmHg 65%
    23:00 +15°C° 0 mm 6 m/S 755 mmHg 65%

    25 November, Montag

    Zeit Temperatur Niederschläge Wind Luftdruck Luftfeuchtigkeit
    00:00 +15°C° 0 mm 7 m/S 755 mmHg 65%
    01:00 +15°C° 0 mm 7 m/S 755 mmHg 65%
    02:00 +15°C° 0 mm 7 m/S 754 mmHg 64%
    03:00 +15°C° 0 mm 7 m/S 754 mmHg 64%
    04:00 +15°C° 0 mm 7 m/S 754 mmHg 63%
    05:00 +15°C° 0 mm 6 m/S 754 mmHg 64%
    06:00 +14°C° 0 mm 5 m/S 754 mmHg 65%
    07:00 +14°C° 0 mm 4 m/S 754 mmHg 67%
    08:00 +16°C° 0 mm 3 m/S 755 mmHg 64%
    09:00 +17°C° 0 mm 3 m/S 755 mmHg 62%
    10:00 +18°C° 0 mm 2 m/S 755 mmHg 60%
    11:00 +19°C° 0 mm 3 m/S 755 mmHg 59%
    12:00 +19°C° 0 mm 3 m/S 755 mmHg 57%
    13:00 +20°C° 0 mm 3 m/S 755 mmHg 56%
    14:00 +19°C° 0 mm 4 m/S 755 mmHg 61%
    15:00 +18°C° 0 mm 4 m/S 755 mmHg 65%
    16:00 +16°C° 0 mm 5 m/S 755 mmHg 70%
    17:00 +16°C° 0 mm 5 m/S 755 mmHg 70%
    18:00 +16°C° 0 mm 6 m/S 755 mmHg 69%
    19:00 +16°C° 0 mm 6 m/S 755 mmHg 69%
    20:00 +15°C° 0 mm 6 m/S 755 mmHg 69%
    21:00 +15°C° 0 mm 6 m/S 755 mmHg 68%
    22:00 +14°C° 0 mm 6 m/S 756 mmHg 68%
    23:00 +14°C° 0 mm 6 m/S 755 mmHg 68%
    Mehr zeigen